Skip Page Navigation
NASA JPL Caltech
NASA Logo - Jet Propulsion Laboratory + View the NASA Portal
+ Near-Earth Object (NEO) Program
Search JPL
JPL Home Earth Solar System Stars & Galaxies Technology
JPL Solar System Dynamics
BODIES ORBITS EPHEMERIDES TOOLS PHYSICAL DATA DISCOVERY FAQ SITE MAP
JPL Small-Body Database Browser
Search: [ help ]  
16582 (1992 JS3)
Classification: Main-belt Asteroid          SPK-ID: 2016582
Ephemeris | Orbit Diagram | Orbital Elements | Physical Parameters | Discovery Circumstances | Close-Approach Data ]

[ show orbit diagram ]
Orbital Elements at Epoch 2457600.5 (2016-Jul-31.0) TDB
Reference: JPL 21 (heliocentric ecliptic J2000)
 Element Value Uncertainty (1-sigma)   Units 
e .1334109894587654 7.3791e-08  
a 2.392806306509043 1.4141e-08 au
q 2.073579649574497 1.7609e-07 au
i 6.929493327474724 7.3356e-06 deg
node 40.56840185943219 4.2255e-05 deg
peri 162.6372585226067 4.5507e-05 deg
M 218.3194296496246 1.7089e-05 deg
tp 2458132.568489440027
(2018-Jan-14.06848944)
6.5298e-05 JED
period 1351.94724106997
3.70
1.1984e-05
3.281e-08
d
yr
n .2662825804615612 2.3604e-09 deg/d
Q 2.712032963443588 1.6027e-08 au
  Orbit Determination Parameters
   # obs. used (total)      1075  
   data-arc span      10617 days (29.07 yr)  
   first obs. used      1986-11-07  
   last obs. used      2015-12-02  
   planetary ephem.      DE431  
   SB-pert. ephem.      SB431-BIG16  
   condition code      0  
   fit RMS      .52761  
   data source      ORB  
   producer      Otto Matic  
   solution date      2016-Jan-04 13:34:20  

Additional Information
 Earth MOID = 1.0703 au 
 Jupiter MOID = 2.24725 au 
 T_jup = 3.509 
[ show covariance matrix ]

Ephemeris | Orbit Diagram | Orbital Elements | Physical Parameters | Discovery Circumstances | Close-Approach Data ]

Physical Parameter Table
Parameter Symbol Value Units Sigma Reference Notes
absolute magnitude H 14.1 mag n/a MPO302167  

16582 (1992 JS3)          Discovered 1992-May-11 by Debehogne, H. at La Silla
Reference: 20000913/Numbers.arcLast Updated: 2004-04-19

[ show close-approach data ]
Alternate Designations
 1992 JS3 = 1986 VR9 = 1999 CZ52 = 1999 LL1 
Ephemeris | Orbit Diagram | Orbital Elements | Physical Parameters | Discovery Circumstances | Close-Approach Data ]
ABOUT SSD CREDITS/AWARDS PRIVACY/COPYRIGHT GLOSSARY LINKS
FirstGov 2016-May-04 17:23 UT
(server date/time)  
NASA Home Page
Site Manager:   Ryan S. Park
Webmaster  Alan B. Chamberlin